Tracking 19817 objects as of 18-Aug-2019
HD Live streaming from Space Station
objects crossing your sky now

FENGYUN 1C DEB

Track FENGYUN 1C DEB now!
10-day predictions


NORAD ID: 37423
Int'l Code: 1999-025EGR
Perigee: 854.6 km
Apogee: 932.4 km
Inclination: 99.0 °
Period: 102.7 minutes
Semi major axis: 7264 km
RCS: 0.0095 m2 (small)
Launch date: May 10, 1999
Source: People's Republic of China (PRC)
Launch site: Taiyaun Space Center, China (TSC)

Note: This is SATELLITE DEBRIS
aabbcc
Your satellite tracking list
Your tracking list is empty




NASA's NSSDC Master Catalog

Two Line Element Set (TLE):
1 37423U 99025EGR 19227.97042025  .00000422  00000-0  30050-3 0  9993
2 37423  98.9980 296.1342 0053509 126.2141 234.3989 14.02144017506171
Source of the keplerian elements: AFSPC